Erzurum, Turkey

4:06 PM +03 on June 22, 2017 (GMT +0300)
Erzurum

Weather History for LTCE - February, 2013

Change the Weather History Date:

Wednesday, February 27, 2013

  Actual Average Record
Temperature  
Mean Temperature 24 °F -  
Max Temperature 32 °F 36 °F 46 °F (1997)
Min Temperature 17 °F 21 °F -16 °F (2007)
Degree Days  
Heating Degree Days 40    
Moisture  
Dew Point 24 °F    
Average Humidity 97    
Maximum Humidity 100    
Minimum Humidity 93    
Precipitation  
Precipitation 0.04 in 0.04 in - ()
Sea Level Pressure  
Sea Level Pressure 30.05 in    
Wind  
Wind Speed 2 mph ()    
Max Wind Speed 9 mph    
Max Gust Speed -    
Visibility 1.8 miles    
Events Fog , Snow    
Averages and records for this station are not official NWS values.
T = Trace of Precipitation, MM = Missing Value Source: Averaged Metar Reports

Daily Weather History Graph

Daily Weather History Graph

Search for Another Location

Airport or City:

Trip Planner

Search our weather history database for the weather conditions in past years. The results will help you decide how hot, cold, wet, or windy it might be!

Date:

Astronomy

Feb. 27, 2013 Rise Set
Actual Time 5:51 AM EET 5:04 PM EET
Civil Twilight 5:24 AM EET 5:32 PM EET
Nautical Twilight 4:53 AM EET 6:03 PM EET
Astronomical Twilight 4:21 AM EET 6:34 PM EET
Moon 7:02 PM EET (2/27) 6:15 AM EET (2/27)
Length of Visible Light 12h 07m
Length of Day
11h 13m
Full, 97% of the Moon is Illuminated
Feb 27
Full
Mar 4
Last Quarter
Mar 11
New
Mar 19
First Quarter
Mar 27
Full

Hourly Weather History & Observations

Time (EET) Temp. Windchill Dew Point Humidity Pressure Visibility Wind Dir Wind Speed Gust Speed Precip Events Conditions
12:20 AM 21.2 °F - 21.2 °F 100% 30.18 in - Calm Calm - N/A Fog Light Freezing Fog
12:50 AM 21.2 °F - 19.4 °F 93% 30.18 in - Variable 1.2 mph - N/A Fog Light Freezing Fog
1:20 AM 21.2 °F - 19.4 °F 93% 30.15 in 0.3 mi Variable 2.3 mph - N/A Fog Light Freezing Fog
1:50 AM 21.2 °F - 19.4 °F 93% 30.15 in 0.3 mi Variable 2.3 mph - N/A Fog Light Freezing Fog
2:00 AM 20 °F - 20 °F 100%  in 0 mi West 3.5 mph - - Fog Heavy Fog
2:20 AM 19.4 °F - 19.4 °F 100% 30.15 in 0.3 mi Variable 2.3 mph - N/A Fog Light Freezing Fog
2:50 AM 19.4 °F 14.3 °F 19.4 °F 100% 30.15 in 0.3 mi WSW 3.5 mph - N/A Fog Light Freezing Fog
3:20 AM 19.4 °F - 19.4 °F 100% 30.15 in 0.3 mi Variable 2.3 mph - N/A Fog Light Freezing Fog
3:50 AM 19.4 °F 14.3 °F 17.6 °F 93% 30.12 in 0.3 mi WSW 3.5 mph - N/A Fog Light Freezing Fog
4:20 AM 17.6 °F 12.3 °F 17.6 °F 100% 30.12 in 0.3 mi WSW 3.5 mph - N/A Fog Light Freezing Fog
4:50 AM 17.6 °F - 17.6 °F 100% 30.12 in 0.3 mi Calm Calm - N/A Fog Light Freezing Fog
5:20 AM 17.6 °F - 17.6 °F 100% 30.12 in 0.3 mi Variable 2.3 mph - N/A Fog Light Freezing Fog
5:50 AM 17.6 °F - 17.6 °F 100% 30.12 in 0.3 mi Variable 2.3 mph - N/A Fog Light Freezing Fog
6:20 AM 17.6 °F - 15.8 °F 93% 30.12 in 0.2 mi Calm Calm - N/A Fog Light Freezing Fog
6:50 AM 17.6 °F - 17.6 °F 100% 30.12 in 0.2 mi Calm Calm - N/A Fog Light Freezing Fog
7:20 AM 19.4 °F - 19.4 °F 100% 30.12 in 0.2 mi Calm Calm - N/A Fog Light Freezing Fog
7:50 AM 17.6 °F - 17.6 °F 100% 30.12 in 0.2 mi Variable 2.3 mph - N/A Fog Light Freezing Fog
8:00 AM 18 °F - 18 °F 99%  in 0 mi WSW 2.3 mph - - Fog Heavy Fog
8:20 AM 19.4 °F - 17.6 °F 93% 30.12 in 0.3 mi Variable 1.2 mph - N/A Fog Light Freezing Fog
8:50 AM 19.4 °F - 19.4 °F 100% 30.12 in 0.3 mi Calm Calm - N/A Fog Light Freezing Fog
9:20 AM 19.4 °F - 19.4 °F 100% 30.09 in 0.3 mi Variable 1.2 mph - N/A Fog Light Freezing Fog
9:50 AM 19.4 °F - 19.4 °F 100% 30.09 in - Variable 2.3 mph - N/A Fog Patches of Fog
10:20 AM 21.2 °F - 21.2 °F 100% 30.09 in 1.0 mi Variable 1.2 mph - N/A Fog Patches of Fog
10:50 AM 23.0 °F - 23.0 °F 100% 30.09 in 1.4 mi Variable 1.2 mph - N/A   Mostly Cloudy
11:20 AM 24.8 °F - 23.0 °F 93% 30.06 in 2.5 mi Variable 1.2 mph - N/A   Mostly Cloudy
11:50 AM 23.0 °F 18.4 °F 23.0 °F 100% 30.06 in 2.8 mi NNE 3.5 mph - N/A   Mostly Cloudy
12:20 PM 24.8 °F - 24.8 °F 100% 30.06 in 2.8 mi Variable 2.3 mph - N/A   Mostly Cloudy
12:50 PM 26.6 °F - 26.6 °F 100% 30.04 in 2.8 mi Variable 2.3 mph - N/A   Mostly Cloudy
1:20 PM 26.6 °F 22.6 °F 24.8 °F 93% 30.04 in 2.8 mi NNE 3.5 mph - N/A   Mostly Cloudy
1:50 PM 26.6 °F 22.6 °F 24.8 °F 93% 30.04 in 2.8 mi NE 3.5 mph - N/A   Mostly Cloudy
2:00 PM 26 °F - 26 °F 98%  in 3 mi NE 3.5 mph - -   Mist
2:20 PM 26.6 °F - 24.8 °F 93% 30.01 in 2.8 mi Variable 2.3 mph - N/A   Mostly Cloudy
2:50 PM 26.6 °F - 26.6 °F 100% 30.01 in 2.8 mi Variable 2.3 mph - N/A   Mostly Cloudy
3:20 PM 26.6 °F - 24.8 °F 93% 30.01 in 2.8 mi Variable 1.2 mph - N/A   Mostly Cloudy
3:50 PM 28.4 °F - 26.6 °F 93% 30.01 in 2.8 mi Calm Calm - N/A   Mostly Cloudy
4:20 PM 28.4 °F - 26.6 °F 93% 29.98 in 2.8 mi Variable 2.3 mph - N/A   Mostly Cloudy
4:50 PM 28.4 °F - 26.6 °F 93% 29.98 in 2.5 mi Calm Calm - N/A   Overcast
5:20 PM 28.4 °F 24.6 °F 26.6 °F 93% 29.98 in 2.8 mi NNW 3.5 mph - N/A   Mostly Cloudy
5:50 PM 28.4 °F - 26.6 °F 93% 29.98 in - Variable 2.3 mph - N/A   Mostly Cloudy
6:20 PM 28.4 °F - 26.6 °F 93% 29.98 in - NE 2.3 mph - N/A   Mostly Cloudy
6:50 PM 28.4 °F 24.6 °F 28.4 °F 100% 29.98 in 4.3 mi ENE 3.5 mph - N/A   Mostly Cloudy
7:20 PM 28.4 °F - 28.4 °F 100% 29.98 in 3.7 mi Variable 1.2 mph - N/A   Mostly Cloudy
7:50 PM 30.2 °F 25.4 °F 28.4 °F 93% 29.95 in 4.3 mi NNE 4.6 mph - N/A   Mostly Cloudy
8:00 PM 30 °F - 29 °F 94%  in 4 mi NNE 4.6 mph - -   Mist
8:20 PM 30.2 °F 24.3 °F 30.2 °F 100% 29.95 in 4.3 mi NNE 5.8 mph - N/A   Mostly Cloudy
8:50 PM 32.0 °F 25.6 °F 32.0 °F 100% 29.95 in 1.2 mi East 6.9 mph - N/A Snow Light Snow
9:20 PM 30.2 °F 23.4 °F 30.2 °F 100% 29.95 in 1.0 mi East 6.9 mph - N/A Snow Light Snow
9:50 PM 32.0 °F 24.2 °F 32.0 °F 100% 29.92 in 2.8 mi East 9.2 mph - N/A   Mostly Cloudy
10:20 PM 30.2 °F 24.3 °F 30.2 °F 100% 29.92 in - East 5.8 mph - N/A Snow Light Snow
10:50 PM 30.2 °F 23.4 °F 30.2 °F 100% 29.89 in 3.7 mi ENE 6.9 mph - N/A Snow Light Snow
11:20 PM 32.0 °F 25.6 °F 32.0 °F 100% 29.89 in 2.2 mi ENE 6.9 mph - N/A Snow Light Snow
11:50 PM 32.0 °F 25.6 °F 32.0 °F 100% 29.89 in 3.7 mi NNE 6.9 mph - N/A   Mostly Cloudy